period_start,C,m1,H,J0,J1,J2,J3,J4,J5,JA,JB,JC,JD,JJ,JK,JN,#
2018-09-17 00:04:04,0.02,0.40,0.00,17.42,20.39,23.64,13.90,28.33,1016.13,2054.98,3451.31,2938.99,3362.44,600.14,607.40,22.39,0000 0000 0000 0000 000000
2018-09-17 00:09:05,0.02,0.40,0.00,17.43,20.40,23.64,13.96,28.35,1016.13,2054.99,3451.04,2938.75,3362.10,600.02,607.06,22.44,0000 0000 0000 0000 000000
2018-09-17 00:14:06,0.00,0.40,0.00,17.44,20.40,23.69,13.93,28.25,1016.13,2054.99,3451.00,2938.31,3362.00,600.20,607.35,22.49,0000 0000 0000 0000 000000
2018-09-17 00:19:07,0.00,0.40,0.00,17.44,20.40,23.64,13.93,28.23,1016.13,2054.99,3451.00,2938.16,3362.00,599.81,606.82,22.54,0000 0000 0000 0000 000000
2018-09-17 00:24:09,0.00,0.40,0.00,17.44,20.42,23.64,13.86,28.16,1016.13,2054.99,3450.97,2938.01,3361.97,600.07,607.12,22.59,0000 0000 0000 0000 000000
2018-09-17 00:29:10,0.02,0.40,0.00,17.44,20.42,23.62,13.95,28.29,1016.13,2054.99,3450.31,2938.00,3361.49,600.24,607.38,22.64,0000 0000 0000 0000 000000
2018-09-17 00:34:12,0.00,0.40,0.00,17.45,20.42,23.60,13.88,28.18,1016.13,2054.99,3450.03,2937.99,3361.18,599.43,606.67,22.69,0000 0000 0000 0000 000000
2018-09-17 00:39:13,0.00,0.40,0.00,17.45,20.42,23.59,13.80,28.14,1016.13,2054.99,3450.00,2937.99,3361.05,599.61,606.81,22.74,0000 0000 0000 0000 000000
2018-09-17 00:44:14,0.00,0.40,0.00,17.46,20.42,23.60,14.03,28.40,1016.13,2054.99,3450.00,2937.93,3361.03,600.04,607.14,22.79,0000 0000 0000 0000 000000
2018-09-17 00:49:16,0.00,0.40,0.00,17.45,20.43,23.65,13.86,28.20,1016.13,2054.99,3449.98,2937.72,3361.00,600.20,607.60,22.84,0000 0000 0000 0000 000000
2018-09-17 00:54:17,0.00,0.40,0.00,17.47,20.44,23.65,13.92,28.43,1016.13,2054.98,3449.98,2937.61,3361.01,600.05,607.06,22.89,0000 0000 0000 0000 000000
2018-09-17 00:59:19,0.01,0.40,0.00,17.47,20.44,23.64,13.96,28.42,1016.14,2054.99,3449.97,2937.47,3361.00,600.20,607.23,22.94,0000 0000 0000 0000 000000
2018-09-17 01:04:20,0.00,0.40,0.00,17.47,20.44,23.62,13.94,28.34,1016.14,2054.99,3449.95,2937.32,3361.00,600.28,607.34,22.99,0000 0000 0000 0000 000000
2018-09-17 01:09:21,0.01,0.40,0.00,17.47,20.44,23.66,13.80,28.18,1016.13,2054.98,3449.74,2937.07,3360.99,599.56,606.64,23.04,0000 0000 0000 0000 000000
2018-09-17 01:14:22,0.02,0.40,0.00,17.47,20.44,23.68,14.02,28.39,1016.15,2054.97,3449.20,2936.99,3360.38,600.39,607.33,23.09,0000 0000 0000 0000 000000
2018-09-17 01:19:24,0.00,0.40,0.00,17.47,20.44,23.65,13.97,28.37,1016.15,2054.98,3449.00,2936.98,3360.03,600.38,607.41,23.14,0000 0000 0000 0000 000000
2018-09-17 01:24:25,0.00,0.40,0.00,17.47,20.45,23.71,13.94,28.33,1016.15,2054.98,3449.00,2936.97,3360.03,600.00,606.98,23.19,0000 0000 0000 0000 000000
2018-09-17 01:29:26,0.00,0.40,0.00,17.49,20.46,23.65,14.02,28.47,1016.17,2054.98,3449.00,2936.98,3360.01,600.08,607.14,23.24,0000 0000 0000 0000 000000
2018-09-17 01:34:27,0.00,0.40,0.00,17.49,20.47,23.62,13.92,28.34,1016.17,2054.99,3449.00,2936.96,3360.01,600.23,607.29,23.29,0000 0000 0000 0000 000000
2018-09-17 01:39:29,0.00,0.40,0.00,17.49,20.47,23.61,13.83,28.30,1016.16,2054.98,3448.99,2936.95,3360.00,599.94,607.02,23.34,0000 0000 0000 0000 000000
2018-09-17 01:44:30,-0.00,0.40,0.00,17.50,20.47,23.60,13.89,28.27,1016.19,2054.98,3448.97,2936.86,3360.00,599.88,606.98,23.39,0000 0000 0000 0000 000000
2018-09-17 01:49:31,0.00,0.40,0.00,17.51,20.47,23.66,13.90,28.32,1016.21,2054.99,3448.98,2936.89,3360.00,599.99,607.06,23.44,0000 0000 0000 0000 000000
2018-09-17 01:54:32,0.00,0.40,0.00,17.52,20.47,23.69,13.98,28.42,1016.23,2054.98,3448.99,2936.92,3360.01,599.86,606.86,23.49,0000 0000 0000 0000 000000
2018-09-17 01:59:34,0.00,0.40,0.00,17.52,20.47,23.63,13.88,28.27,1016.31,2054.98,3448.99,2936.88,3360.00,600.10,607.29,23.54,0000 0000 0000 0000 000000
2018-09-17 02:04:35,0.00,0.40,0.00,17.52,20.48,23.67,13.85,28.19,1016.39,2054.98,3448.99,2936.85,3360.00,600.17,607.30,23.59,0000 0000 0000 0000 000000
2018-09-17 02:09:36,0.01,0.40,0.00,17.54,20.49,23.68,13.89,28.33,1016.46,2054.96,3448.98,2936.48,3360.00,599.57,606.73,23.64,0000 0000 0000 0000 000000
2018-09-17 02:14:37,-0.00,0.40,0.00,17.54,20.49,23.70,13.89,28.25,1016.53,2054.93,3448.97,2936.40,3360.00,599.82,606.92,23.69,0000 0000 0000 0000 000000
2018-09-17 02:19:38,0.20,0.41,0.00,17.55,20.49,23.67,14.00,28.35,1016.48,2054.95,3444.85,2934.63,3357.86,600.19,607.31,23.74,0000 0000 0000 0000 000000
2018-09-17 02:24:40,0.01,0.41,0.00,17.57,20.49,23.70,13.94,28.40,1016.48,2054.95,3443.02,2933.97,3357.00,599.85,607.04,23.79,0000 0000 0000 0000 000000
2018-09-17 02:29:41,0.00,0.41,0.00,17.58,20.51,23.65,13.88,28.25,1016.48,2054.97,3443.01,2933.92,3356.98,599.98,607.03,23.84,0000 0000 0000 0000 000000
2018-09-17 02:34:42,0.00,0.41,0.00,17.60,20.52,23.70,13.93,28.39,1016.43,2054.95,3443.00,2933.76,3356.97,599.98,606.97,23.89,0000 0000 0000 0000 000000
2018-09-17 02:39:44,0.01,0.41,0.00,17.62,20.52,23.71,13.94,28.43,1016.46,2054.94,3442.99,2933.42,3356.82,600.15,607.08,23.94,0000 0000 0000 0000 000000
2018-09-17 02:44:45,-0.00,0.41,0.00,17.62,20.54,23.68,13.91,28.41,1016.58,2054.76,3442.98,2933.07,3356.23,599.88,606.80,23.99,0000 0000 0000 0000 000000
2018-09-17 02:49:47,0.01,0.41,0.00,17.64,20.54,23.72,13.86,28.32,1016.60,2054.70,3442.92,2933.02,3356.05,599.95,606.86,24.04,0000 0000 0000 0000 000000
2018-09-17 02:54:48,-0.03,0.41,0.00,17.64,20.56,23.67,14.00,28.44,1016.60,2054.39,3442.35,2933.00,3356.00,600.24,607.27,24.09,0000 0000 0000 0000 000000
2018-09-17 02:59:50,-0.00,0.41,0.00,17.66,20.57,23.67,13.84,28.35,1016.60,2054.24,3442.06,2932.99,3356.00,599.76,606.71,24.14,0000 0000 0000 0000 000000
2018-09-17 03:04:51,-0.00,0.41,0.00,17.67,20.58,23.69,13.89,28.41,1016.61,2054.11,3442.05,2932.98,3356.00,599.93,606.97,24.19,0000 0000 0000 0000 000000
2018-09-17 03:09:52,0.00,0.41,0.00,17.68,20.59,23.71,13.98,28.47,1016.61,2054.04,3442.00,2932.85,3355.92,600.37,607.29,24.24,0000 0000 0000 0000 000000
2018-09-17 03:14:53,0.02,0.41,0.00,17.70,20.60,23.72,13.81,28.24,1016.62,2054.04,3441.97,2932.30,3355.41,599.35,606.23,24.29,0000 0000 0000 0000 000000
2018-09-17 03:19:55,0.01,0.41,0.00,17.72,20.62,23.78,13.90,28.36,1016.62,2054.05,3441.69,2932.08,3355.14,599.94,606.84,24.34,0000 0000 0000 0000 000000
2018-09-17 03:24:56,0.00,0.42,0.00,17.72,20.62,23.75,13.86,28.33,1016.61,2054.05,3441.21,2932.01,3355.02,599.90,606.75,24.39,0000 0000 0000 0000 000000
2018-09-17 03:29:57,0.00,0.42,0.00,17.74,20.64,23.72,13.87,28.30,1016.61,2054.01,3441.01,2932.00,3355.00,600.13,606.95,24.44,0000 0000 0000 0000 000000
2018-09-17 03:34:58,0.00,0.42,0.00,17.74,20.64,23.69,13.94,28.36,1016.60,2054.05,3440.98,2931.99,3354.98,600.33,607.03,24.49,0000 0000 0000 0000 000000
2018-09-17 03:39:59,0.00,0.42,0.00,17.74,20.66,23.75,13.82,28.27,1016.61,2054.04,3440.96,2931.96,3354.90,600.37,607.13,24.54,0000 0000 0000 0000 000000
2018-09-17 03:45:01,-0.00,0.42,0.00,17.76,20.67,23.80,13.79,28.23,1016.61,2054.03,3440.91,2931.94,3354.77,599.95,606.72,24.59,0000 0000 0000 0000 000000
2018-09-17 03:50:02,0.03,0.42,0.00,17.77,20.68,23.77,13.86,28.34,1016.62,2054.01,3440.59,2931.57,3354.33,599.82,606.45,24.64,0000 0000 0000 0000 000000
2018-09-17 03:55:03,-0.00,0.42,0.00,17.77,20.69,23.81,13.89,28.37,1016.62,2054.00,3440.60,2931.32,3354.09,599.93,606.67,24.69,0000 0000 0000 0000 000000
2018-09-17 04:00:04,0.01,0.42,0.00,17.79,20.70,23.82,13.92,28.34,1016.62,2054.00,3440.29,2931.20,3354.03,600.38,607.00,24.74,0000 0000 0000 0000 000000
2018-09-17 04:05:06,0.02,0.42,0.00,17.81,20.72,23.78,13.91,28.29,1016.62,2054.00,3439.77,2930.90,3353.83,600.15,606.69,24.79,0000 0000 0000 0000 000000
2018-09-17 04:10:07,0.09,0.42,0.00,17.83,20.72,23.83,13.94,28.38,1016.62,2054.00,3437.72,2929.82,3352.46,599.92,606.56,24.84,0000 0000 0000 0000 000000
2018-09-17 04:15:08,0.02,0.42,0.00,17.84,20.74,23.82,13.92,28.32,1016.62,2053.99,3437.01,2929.09,3352.00,600.17,606.66,24.89,0000 0000 0000 0000 000000
2018-09-17 04:20:10,0.00,0.42,0.00,17.84,20.74,23.87,13.93,28.37,1016.62,2053.99,3437.00,2929.02,3351.97,600.45,606.92,24.94,0000 0000 0000 0000 000000
2018-09-17 04:25:11,0.02,0.42,0.00,17.85,20.77,23.85,13.88,28.36,1016.62,2053.99,3436.57,2928.99,3351.57,599.87,606.46,24.99,0000 0000 0000 0000 000000
2018-09-17 04:30:13,0.03,0.43,0.00,17.87,20.77,23.80,13.74,28.21,1016.62,2053.98,3435.85,2928.37,3351.00,599.46,606.06,25.04,0000 0000 0000 0000 000000
2018-09-17 04:35:14,0.09,0.43,0.00,17.88,20.79,23.85,13.86,28.31,1016.63,2053.97,3433.93,2927.46,3349.89,600.10,606.68,25.09,0000 0000 0000 0000 000000
2018-09-17 04:40:16,0.09,0.44,0.00,17.89,20.79,23.90,13.93,28.40,1016.64,2053.92,3431.30,2925.85,3348.16,600.12,606.73,25.14,0000 0000 0000 0000 000000
2018-09-17 04:45:17,0.03,0.44,0.00,17.89,20.81,23.87,14.01,28.54,1016.68,2053.79,3430.12,2925.04,3347.26,600.31,606.95,25.19,0000 0000 0000 0000 000000
2018-09-17 04:50:18,-0.01,0.44,0.00,17.92,20.82,23.90,13.90,28.38,1016.73,2053.71,3430.00,2925.00,3347.02,599.93,606.55,25.24,0000 0000 0000 0000 000000
2018-09-17 04:55:19,-0.00,0.44,0.00,17.92,20.83,23.90,13.76,28.24,1016.77,2053.71,3429.96,2925.00,3347.00,599.82,606.33,25.29,0000 0000 0000 0000 000000
2018-09-17 05:00:20,-0.02,0.44,0.00,17.93,20.84,23.94,13.98,28.50,1016.82,2053.40,3429.95,2924.99,3347.00,600.17,606.70,25.34,0000 0000 0000 0000 000000
2018-09-17 05:05:21,-0.02,0.44,0.00,17.94,20.85,23.96,13.91,28.39,1016.88,2053.11,3429.60,2924.97,3346.97,599.99,606.51,25.39,0000 0000 0000 0000 000000
2018-09-17 05:10:23,0.04,0.44,0.00,17.95,20.87,23.96,13.91,28.41,1016.95,2053.06,3428.99,2924.36,3346.49,600.48,607.03,25.44,0000 0000 0000 0000 000000
2018-09-17 05:15:24,0.02,0.44,0.00,17.95,20.87,24.00,13.87,28.41,1016.93,2053.04,3428.23,2924.00,3346.01,600.42,606.93,25.49,0000 0000 0000 0000 000000
2018-09-17 05:20:25,0.00,0.44,0.00,17.97,20.89,23.95,13.86,28.32,1017.01,2053.03,3428.00,2923.98,3345.99,599.89,606.58,25.55,0000 0000 0000 0000 000000
2018-09-17 05:25:26,0.01,0.44,0.00,17.97,20.89,23.96,13.89,28.46,1017.03,2053.01,3427.87,2923.81,3345.72,600.25,606.83,25.60,0000 0000 0000 0000 000000
2018-09-17 05:30:28,0.04,0.44,0.00,17.98,20.91,24.01,13.93,28.47,1017.08,2053.01,3427.08,2923.10,3345.04,600.00,606.63,25.65,0000 0000 0000 0000 000000
2018-09-17 05:35:29,0.00,0.44,0.00,17.99,20.92,24.02,13.91,28.38,1017.06,2053.01,3426.71,2923.00,3344.98,600.23,606.78,25.70,0000 0000 0000 0000 000000
2018-09-17 05:40:30,0.01,0.44,0.00,18.00,20.92,24.05,13.93,28.42,1017.08,2053.00,3426.04,2922.96,3344.80,600.30,606.86,25.75,0000 0000 0000 0000 000000
2018-09-17 05:45:32,0.01,0.44,0.00,18.02,20.94,24.02,13.85,28.38,1017.08,2053.00,3426.00,2922.70,3344.23,599.66,606.16,25.80,0000 0000 0000 0000 000000
2018-09-17 05:50:33,0.01,0.44,0.00,18.02,20.94,24.02,13.88,28.38,1017.09,2053.00,3425.99,2922.38,3344.02,599.80,606.32,25.85,0000 0000 0000 0000 000000
2018-09-17 05:55:34,0.02,0.45,0.00,18.03,20.97,24.03,13.92,28.48,1017.10,2053.00,3425.22,2922.03,3344.00,600.35,606.71,25.90,0000 0000 0000 0000 000000
2018-09-17 06:00:35,0.00,0.45,0.00,18.04,20.97,24.08,13.99,28.47,1017.10,2053.00,3425.00,2922.00,3343.99,599.98,606.42,25.95,0000 0000 0000 0000 000000
2018-09-17 06:05:36,0.00,0.45,0.00,18.07,20.99,24.06,13.94,28.52,1017.10,2053.00,3424.98,2922.00,3343.92,600.14,606.60,26.00,0000 0000 0000 0000 000000
2018-09-17 06:10:38,0.00,0.45,0.00,18.07,20.99,24.05,13.93,28.43,1017.10,2053.00,3424.98,2921.99,3343.78,599.94,606.37,26.05,0000 0000 0000 0000 000000
2018-09-17 06:15:39,0.01,0.45,0.00,18.09,21.01,24.06,13.92,28.41,1017.10,2052.99,3424.97,2921.98,3343.39,600.25,606.68,26.10,0000 0000 0000 0000 000000
2018-09-17 06:20:41,0.00,0.45,0.00,18.10,21.02,24.08,13.91,28.45,1017.11,2052.99,3424.88,2921.95,3343.06,599.94,606.36,26.15,0000 0000 0000 0000 000000
2018-09-17 06:25:42,0.02,0.45,0.00,18.12,21.03,24.13,13.85,28.36,1017.11,2052.98,3424.56,2921.62,3343.01,599.72,605.96,26.20,0000 0000 0000 0000 000000
2018-09-17 06:30:43,0.01,0.45,0.00,18.14,21.04,24.11,13.99,28.47,1017.12,2052.99,3424.04,2921.08,3342.99,600.22,606.42,26.25,0000 0000 0000 0000 000000
2018-09-17 06:35:44,0.05,0.45,0.00,18.14,21.06,24.09,13.91,28.44,1017.12,2052.98,3423.34,2920.66,3342.41,600.08,606.16,26.30,0000 0000 0000 0000 000000
2018-09-17 06:40:45,0.03,0.45,0.00,18.14,21.07,24.14,13.91,28.49,1017.13,2052.97,3422.05,2920.01,3341.31,599.86,606.23,26.35,0000 0000 0000 0000 000000
2018-09-17 06:45:47,0.01,0.45,0.00,18.17,21.08,24.10,13.93,28.39,1017.22,2052.97,3421.79,2919.96,3341.04,600.02,606.31,26.40,0000 0000 0000 0000 000000
2018-09-17 06:50:48,0.05,0.46,0.00,18.18,21.09,24.15,13.84,28.33,1017.23,2052.96,3420.77,2919.23,3340.57,599.80,606.13,26.45,0000 0000 0000 0000 000000
2018-09-17 06:55:49,0.10,0.46,0.00,18.18,21.10,24.15,13.93,28.38,1017.28,2052.92,3418.75,2917.86,3339.16,599.73,606.04,26.50,0000 0000 0000 0000 000000
2018-09-17 07:00:50,0.11,0.47,0.00,18.19,21.12,24.21,13.82,28.28,1017.38,2052.80,3415.47,2916.09,3337.11,599.84,606.13,26.55,0000 0000 0000 0000 000000
2018-09-17 07:05:52,0.06,0.47,0.00,18.19,21.12,24.25,13.92,28.43,1017.49,2052.59,3412.97,2914.66,3335.55,599.70,606.11,26.60,0000 0000 0000 0000 000000
2018-09-17 07:10:53,0.11,0.48,0.00,18.21,21.12,24.24,13.89,28.31,1017.58,2052.26,3410.01,2912.98,3333.64,600.13,606.55,26.65,0000 0000 0000 0000 000000
2018-09-17 07:15:54,0.15,0.48,0.00,18.22,21.14,24.25,13.86,28.34,1017.58,2052.09,3406.34,2910.86,3331.25,599.82,606.10,26.70,0000 0000 0000 0000 000000
2018-09-17 07:20:55,0.10,0.49,0.00,18.22,21.14,24.18,13.87,28.27,1017.59,2052.06,3403.38,2909.20,3329.49,599.77,606.11,26.75,0000 0000 0000 0000 000000
2018-09-17 07:25:57,0.20,0.49,0.00,18.24,21.14,24.20,13.89,28.29,1017.59,2052.02,3399.27,2906.97,3326.97,599.86,606.21,26.80,0000 0000 0000 0000 000000
2018-09-17 07:30:58,0.08,0.50,0.00,18.26,21.15,24.25,13.86,28.38,1017.59,2052.01,3395.85,2905.08,3325.06,599.92,606.14,26.85,0000 0000 0000 0000 000000
2018-09-17 07:35:59,0.02,0.50,0.00,18.27,21.17,24.27,13.96,28.41,1017.59,2052.02,3395.00,2904.89,3324.50,599.97,606.41,26.90,0000 0000 0000 0000 000000
2018-09-17 07:41:01,0.12,0.51,0.00,18.27,21.17,24.23,13.89,28.38,1017.60,2052.02,3393.10,2903.55,3323.21,599.78,606.09,26.95,0000 0000 0000 0000 000000
2018-09-17 07:46:02,0.14,0.52,0.00,18.29,21.18,24.27,13.90,28.33,1017.60,2052.01,3389.36,2901.21,3320.61,599.94,606.15,27.00,0000 0000 0000 0000 000000
2018-09-17 07:51:04,0.01,0.52,0.00,18.30,21.19,24.23,13.90,28.38,1017.61,2052.00,3388.61,2900.95,3320.01,600.02,606.25,27.05,0000 0000 0000 0000 000000
2018-09-17 07:56:04,0.07,0.52,0.00,18.32,21.19,24.24,13.83,28.34,1017.62,2052.01,3387.29,2900.07,3319.49,599.77,606.00,27.10,0000 0000 0000 0000 000000
2018-09-17 08:01:06,0.13,0.53,0.00,18.33,21.21,24.28,13.90,28.38,1017.62,2052.00,3384.37,2898.60,3317.62,600.11,606.21,27.15,0000 0000 0000 0000 000000
2018-09-17 08:06:07,0.02,0.53,0.00,18.33,21.22,24.33,13.88,28.35,1017.62,2052.00,3383.00,2897.95,3316.80,599.89,606.03,27.20,0000 0000 0000 0000 000000
2018-09-17 08:11:08,0.17,0.53,0.00,18.32,21.22,24.27,14.01,28.51,1017.63,2052.00,3380.30,2896.40,3315.03,600.42,606.41,27.25,0000 0000 0000 0000 000000
2018-09-17 08:16:10,0.17,0.55,0.00,18.32,21.23,24.29,13.81,28.26,1017.67,2052.00,3375.10,2893.70,3312.12,599.97,606.29,27.30,0000 0000 0000 0000 000000
2018-09-17 08:21:12,0.04,0.55,0.00,18.32,21.24,24.35,13.90,28.32,1017.76,2052.00,3373.36,2892.97,3311.08,600.12,606.39,27.35,0000 0000 0000 0000 000000
2018-09-17 08:26:13,0.05,0.55,0.00,18.34,21.24,24.36,13.81,28.21,1017.95,2052.00,3372.47,2892.16,3310.38,599.79,606.20,27.40,0000 0000 0000 0000 000000
2018-09-17 08:31:14,0.00,0.55,0.00,18.34,21.24,24.41,13.88,28.33,1017.99,2051.98,3371.99,2891.99,3310.00,600.02,606.46,27.45,0000 0000 0000 0000 000000
2018-09-17 08:36:16,0.04,0.55,0.00,18.34,21.25,24.37,14.00,28.46,1018.06,2051.95,3371.16,2891.47,3309.66,600.25,606.75,27.50,0000 0000 0000 0000 000000
2018-09-17 08:41:17,0.01,0.56,0.00,18.36,21.27,24.37,13.89,28.28,1018.06,2051.95,3370.97,2891.04,3309.04,600.07,606.46,27.55,0000 0000 0000 0000 000000
2018-09-17 08:46:18,0.01,0.56,0.00,18.37,21.27,24.35,13.79,28.23,1018.08,2051.90,3370.23,2891.00,3308.99,599.98,606.37,27.60,0000 0000 0000 0000 000000
2018-09-17 08:51:19,0.02,0.56,0.00,18.38,21.27,24.41,13.90,28.42,1018.08,2051.76,3369.84,2890.54,3308.45,600.05,606.50,27.65,0000 0000 0000 0000 000000
2018-09-17 08:56:21,0.00,0.56,0.00,18.39,21.28,24.44,13.83,28.34,1018.08,2051.61,3369.14,2890.02,3308.01,600.15,606.41,27.70,0000 0000 0000 0000 000000
2018-09-17 09:01:22,0.00,0.56,0.00,18.40,21.29,24.38,13.84,28.31,1018.08,2051.55,3369.08,2889.97,3307.86,599.96,606.27,27.75,0000 0000 0000 0000 000000
2018-09-17 09:06:23,0.00,0.56,0.00,18.40,21.29,24.42,13.81,28.27,1018.08,2051.40,3368.90,2889.77,3307.29,599.90,605.99,27.80,0000 0000 0000 0000 000000
2018-09-17 09:11:25,0.01,0.56,0.00,18.41,21.29,24.46,13.90,28.34,1018.08,2051.25,3368.54,2889.40,3306.94,599.93,606.37,27.85,0000 0000 0000 0000 000000
2018-09-17 09:16:26,0.03,0.56,0.00,18.42,21.31,24.46,13.85,28.24,1018.08,2051.16,3367.68,2888.82,3306.12,600.07,606.35,27.90,0000 0000 0000 0000 000000
2018-09-17 09:21:27,-0.00,0.56,0.00,18.42,21.32,24.45,13.90,28.36,1018.08,2051.05,3367.21,2888.88,3306.01,600.07,606.32,27.95,0000 0000 0000 0000 000000
2018-09-17 09:26:28,0.01,0.56,0.00,18.42,21.32,24.51,13.73,28.16,1018.08,2051.05,3367.02,2888.72,3306.01,599.72,605.97,28.00,0000 0000 0000 0000 000000
2018-09-17 09:31:29,0.01,0.56,0.00,18.42,21.32,24.50,13.87,28.22,1018.09,2051.03,3367.00,2888.27,3306.00,599.96,606.25,28.05,0000 0000 0000 0000 000000
2018-09-17 09:36:31,0.00,0.56,0.00,18.42,21.34,24.51,13.93,28.33,1018.10,2051.03,3366.94,2888.06,3306.00,600.19,606.41,28.10,0000 0000 0000 0000 000000
2018-09-17 09:41:32,0.02,0.56,0.00,18.43,21.34,24.47,13.81,28.23,1018.11,2051.03,3366.21,2888.00,3305.63,599.85,606.15,28.15,0000 0000 0000 0000 000000
2018-09-17 09:46:33,0.00,0.56,0.00,18.44,21.34,24.48,13.86,28.26,1018.10,2051.02,3366.00,2887.97,3305.11,600.11,606.25,28.20,0000 0000 0000 0000 000000
2018-09-17 09:51:35,0.03,0.56,0.00,18.44,21.36,24.52,13.87,28.33,1018.09,2051.02,3365.32,2887.49,3304.98,599.60,605.99,28.25,0000 0000 0000 0000 000000
2018-09-17 09:56:36,0.01,0.57,0.00,18.44,21.37,24.52,13.83,28.23,1018.10,2051.01,3365.00,2887.02,3304.73,599.79,606.16,28.30,0000 0000 0000 0000 000000
2018-09-17 10:01:38,0.01,0.57,0.00,18.44,21.37,24.50,13.85,28.26,1018.11,2051.02,3364.99,2887.00,3304.22,599.59,605.88,28.35,0000 0000 0000 0000 000000
2018-09-17 10:06:39,0.01,0.57,0.00,18.44,21.37,24.51,13.75,28.18,1018.11,2051.00,3364.62,2886.99,3304.01,599.64,605.82,28.40,0000 0000 0000 0000 000000
2018-09-17 10:11:41,-0.00,0.57,0.00,18.44,21.39,24.53,13.91,28.33,1018.11,2051.00,3364.30,2886.98,3304.00,600.04,606.19,28.45,0000 0000 0000 0000 000000
2018-09-17 10:16:42,0.00,0.57,0.00,18.44,21.39,24.51,13.82,28.24,1018.11,2051.00,3364.36,2886.99,3304.00,599.72,605.96,28.50,0000 0000 0000 0000 000000
2018-09-17 10:21:43,0.00,0.57,0.00,18.44,21.39,24.53,13.92,28.32,1018.13,2051.00,3364.08,2886.97,3304.00,600.10,606.18,28.55,0000 0000 0000 0000 000000
2018-09-17 10:26:44,0.00,0.57,0.00,18.44,21.39,24.58,13.86,28.29,1018.15,2051.00,3363.99,2886.81,3303.99,599.63,605.97,28.60,0000 0000 0000 0000 000000
2018-09-17 10:31:45,0.03,0.57,0.00,18.46,21.40,24.61,13.95,28.36,1018.15,2051.00,3363.50,2886.11,3303.73,599.92,606.06,28.65,0000 0000 0000 0000 000000
2018-09-17 10:36:47,0.01,0.57,0.00,18.47,21.40,24.54,13.82,28.24,1018.17,2051.00,3363.03,2886.01,3303.10,599.84,606.05,28.70,0000 0000 0000 0000 000000
2018-09-17 10:41:48,0.00,0.57,0.00,18.47,21.41,24.56,13.94,28.37,1018.14,2051.00,3363.00,2886.00,3303.02,600.25,606.39,28.75,0000 0000 0000 0000 000000
2018-09-17 10:46:49,0.00,0.57,0.00,18.47,21.42,24.58,13.86,28.24,1018.11,2050.99,3362.99,2886.00,3303.01,600.03,606.15,28.80,0000 0000 0000 0000 000000
2018-09-17 10:51:50,0.00,0.57,0.00,18.47,21.42,24.62,13.92,28.29,1018.14,2050.99,3362.98,2886.00,3303.00,600.00,606.21,28.85,0000 0000 0000 0000 000000
2018-09-17 10:56:52,0.00,0.57,0.00,18.47,21.42,24.63,14.01,28.38,1018.13,2050.99,3362.85,2885.96,3302.98,600.24,606.44,28.90,0000 0000 0000 0000 000000
2018-09-17 11:01:53,0.01,0.57,0.00,18.47,21.42,24.58,13.93,28.32,1018.12,2050.99,3362.32,2885.75,3302.93,600.26,606.50,28.95,0000 0000 0000 0000 000000
2018-09-17 11:06:54,0.02,0.57,0.00,18.47,21.42,24.56,13.82,28.21,1018.11,2050.99,3362.04,2885.45,3302.64,599.67,605.86,29.00,0000 0000 0000 0000 000000
2018-09-17 11:11:55,0.01,0.57,0.00,18.47,21.42,24.61,13.83,28.23,1018.12,2050.99,3362.00,2885.13,3302.19,599.67,605.87,29.06,0000 0000 0000 0000 000000
2018-09-17 11:16:56,-0.00,0.57,0.00,18.47,21.42,24.57,13.96,28.41,1018.11,2050.99,3362.00,2885.10,3302.13,599.85,606.05,29.11,0000 0000 0000 0000 000000
2018-09-17 11:21:58,0.00,0.57,0.00,18.46,21.43,24.62,13.89,28.30,1018.11,2050.99,3362.00,2885.03,3302.04,599.79,606.03,29.16,0000 0000 0000 0000 000000
2018-09-17 11:26:59,0.00,0.57,0.00,18.46,21.43,24.63,13.88,28.34,1018.12,2050.99,3362.00,2885.03,3302.03,600.13,606.24,29.21,0000 0000 0000 0000 000000
2018-09-17 11:32:01,0.00,0.57,0.00,18.47,21.44,24.59,13.87,28.32,1018.14,2050.99,3362.00,2885.03,3302.03,599.77,605.97,29.26,0000 0000 0000 0000 000000
2018-09-17 11:37:02,0.00,0.57,0.00,18.46,21.44,24.62,13.82,28.25,1018.15,2050.99,3361.98,2885.02,3302.01,599.66,605.93,29.31,0000 0000 0000 0000 000000
2018-09-17 11:42:03,0.00,0.57,0.00,18.45,21.44,24.65,13.87,28.27,1018.17,2050.99,3361.96,2885.01,3302.00,599.87,606.11,29.36,0000 0000 0000 0000 000000
2018-09-17 11:47:05,0.00,0.57,0.00,18.46,21.44,24.62,13.84,28.24,1018.18,2050.99,3361.74,2885.01,3302.00,599.52,605.92,29.41,0000 0000 0000 0000 000000
2018-09-17 11:52:06,0.01,0.57,0.00,18.44,21.44,24.69,13.87,28.32,1018.17,2050.99,3361.06,2884.99,3301.99,599.87,606.14,29.46,0000 0000 0000 0000 000000
2018-09-17 11:57:07,0.00,0.57,0.00,18.44,21.44,24.65,13.82,28.25,1018.18,2050.99,3361.00,2884.98,3301.93,599.68,605.95,29.51,0000 0000 0000 0000 000000
2018-09-17 12:02:08,0.00,0.57,0.00,18.44,21.44,24.64,13.88,28.27,1018.19,2050.99,3361.00,2884.97,3301.78,599.90,606.14,29.56,0000 0000 0000 0000 000000
2018-09-17 12:07:09,0.01,0.57,0.00,18.44,21.44,24.67,13.89,28.33,1018.18,2050.99,3361.00,2884.90,3301.45,600.20,606.58,29.61,0000 0000 0000 0000 000000
2018-09-17 12:12:10,0.01,0.57,0.00,18.44,21.44,24.64,13.87,28.33,1018.21,2050.99,3360.97,2884.78,3301.21,599.83,606.05,29.66,0000 0000 0000 0000 000000
2018-09-17 12:17:12,0.02,0.58,0.00,18.44,21.44,24.64,13.91,28.32,1018.21,2050.99,3360.96,2884.33,3301.06,600.13,606.54,29.71,0000 0000 0000 0000 000000
2018-09-17 12:22:14,0.01,0.58,0.00,18.45,21.44,24.70,13.93,28.38,1018.30,2050.98,3360.60,2884.05,3301.00,599.82,606.25,29.76,0000 0000 0000 0000 000000
2018-09-17 12:27:15,0.00,0.58,0.00,18.45,21.44,24.64,13.87,28.33,1018.42,2050.99,3360.16,2884.03,3301.00,599.83,606.26,29.81,0000 0000 0000 0000 000000
2018-09-17 12:32:16,0.00,0.58,0.00,18.44,21.44,24.61,13.90,28.21,1018.39,2050.99,3360.06,2884.02,3301.00,600.12,606.45,29.86,0000 0000 0000 0000 000000
2018-09-17 12:37:18,0.00,0.58,0.00,18.44,21.44,24.64,13.89,28.26,1018.44,2050.98,3360.01,2884.01,3301.00,600.20,606.74,29.91,0000 0000 0000 0000 000000
2018-09-17 12:42:19,0.00,0.58,0.00,18.44,21.44,24.63,13.89,28.23,1018.39,2050.98,3360.00,2884.00,3300.98,600.25,606.76,29.96,0000 0000 0000 0000 000000
2018-09-17 12:47:20,0.00,0.58,0.00,18.44,21.44,24.65,13.93,28.37,1018.29,2050.99,3359.98,2883.99,3300.93,600.06,606.32,30.01,0000 0000 0000 0000 000000
2018-09-17 12:52:22,0.01,0.58,0.00,18.44,21.44,24.67,13.90,28.33,1018.29,2050.98,3359.87,2883.97,3300.56,600.12,606.48,30.06,0000 0000 0000 0000 000000
2018-09-17 12:57:23,0.00,0.58,0.00,18.44,21.44,24.64,13.83,28.22,1018.43,2050.99,3359.65,2883.97,3300.23,599.81,606.42,30.11,0000 0000 0000 0000 000000